User: anonymous   Login
Location: Mentone
(34.5413°N, 85.5351°W)
Time: 02:58:55
(UTC-05:00)
Language:

ERBS - Orbit

View from above orbital plane
View from above orbital plane
View from above satellite
View from above satellite

Ground track
Ground track

The orbit data is extracted from the following two-line orbital elements,

1 15354U 84108B   14294.60926118  .00015714  00000-0  53759-3 0  6191
2 15354 057.0137 321.3639 0021806 075.3864 284.9601 15.30272203648968
Epoch (UTC): 21 October 2014 14:37:20
Eccentricity: 0.0021806
inclination: 57.0137°
perigee height: 460 km
apogee height: 490 km
right ascension of ascending node: 321.3639°
argument of perigee: 75.3864°
revolutions per day: 15.30272203
mean anomaly at epoch: 284.9601°
orbit number at epoch: 64896

The dashed part of the orbit path shows where the satellite is in the earth's shadow,  

DLR